Weather History for Jacksonville Craig, FL

Change the Weather History Date:

Tuesday, October 1, 2013

  Actual Average Record
Temperature  
Mean Temperature 75 °F -  
Max Temperature 81 °F 80 °F 91 °F (2012)
Min Temperature 68 °F 67 °F 54 °F (2001)
Cooling Degree Days 10    
Growing Degree Days 25 (Base 50)    
Moisture  
Dew Point 63 °F    
Average Humidity 70    
Maximum Humidity 84    
Minimum Humidity 54    
Precipitation  
Precipitation 0.00 in - - ()
Sea Level Pressure  
Sea Level Pressure 30.08 in    
Wind  
Wind Speed 3 mph (NE)    
Max Wind Speed 10 mph    
Max Gust Speed -    
Visibility 10 miles    
Events      
Averages and records for this station are not official NWS values.
T = Trace of Precipitation, MM = Missing Value Source: NWS Daily Summary

Daily Weather History Graph

Daily Weather History Graph

Search for Another Location

Airport:

Trip Planner

Search our weather history database for the weather conditions in past years. The results will help you decide how hot, cold, wet, or windy it might be!

Date:

Astronomy

Oct. 01, 2013 Rise Set
Actual Time 7:19 AM EDT 7:11 PM EDT
Civil Twilight 6:55 AM EDT 7:35 PM EDT
Nautical Twilight 6:27 AM EDT 8:02 PM EDT
Astronomical Twilight 5:59 AM EDT 8:30 PM EDT
Moon 4:04 AM EDT (10/1) 5:03 PM EDT (10/1)
Length of Visible Light 12h 39m
Length of Day
11h 51m
Waning Crescent, 12% of the Moon is Illuminated
Oct 1
Waning Crescent
Oct 4
New
Oct 11
First Quarter
Oct 18
Full
Oct 26
Last Quarter

Hourly Weather History & Observations

Time (EDT) Temp. Heat Index Dew Point Humidity Pressure Visibility Wind Dir Wind Speed Gust Speed Precip Events Conditions
12:53 AM 72.0 °F - 64.0 °F 76% 30.05 in 10.0 mi Calm Calm - N/A   Mostly Cloudy
1:53 AM 72.0 °F - 64.0 °F 76% 30.05 in 10.0 mi Calm Calm - N/A   Scattered Clouds
2:53 AM 70.0 °F - 64.0 °F 81% 30.04 in 10.0 mi Calm Calm - N/A   Mostly Cloudy
3:53 AM 71.1 °F - 64.0 °F 78% 30.04 in 10.0 mi North 3.5 mph - N/A   Overcast
4:53 AM 71.1 °F - 64.0 °F 78% 30.04 in 10.0 mi Calm Calm - N/A   Overcast
5:53 AM 72.0 °F - 64.9 °F 78% 30.05 in 10.0 mi Calm Calm - N/A   Overcast
6:53 AM 70.0 °F - 64.9 °F 84% 30.07 in 10.0 mi NNE 3.5 mph - N/A   Overcast
7:53 AM 71.1 °F - 64.9 °F 81% 30.08 in 10.0 mi North 4.6 mph - N/A   Mostly Cloudy
8:53 AM 73.9 °F - 66.0 °F 76% 30.10 in 10.0 mi NNE 5.8 mph - N/A   Mostly Cloudy
9:53 AM 77.0 °F - 66.9 °F 71% 30.12 in 10.0 mi NE 9.2 mph - N/A   Mostly Cloudy
10:53 AM 78.1 °F - 64.9 °F 64% 30.12 in 10.0 mi NE 10.4 mph - N/A   Overcast
11:53 AM 79.0 °F - 63.0 °F 58% 30.12 in 10.0 mi North 9.2 mph - N/A   Scattered Clouds
12:53 PM 79.0 °F - 63.0 °F 58% 30.11 in 10.0 mi NE 10.4 mph - N/A   Mostly Cloudy
1:53 PM 80.1 °F 81.2 °F 62.1 °F 54% 30.08 in 10.0 mi NNE 6.9 mph - N/A   Overcast
2:53 PM 78.1 °F - 61.0 °F 56% 30.07 in 10.0 mi ENE 10.4 mph - N/A   Mostly Cloudy
3:53 PM 77.0 °F - 62.1 °F 60% 30.06 in 10.0 mi East 6.9 mph - N/A   Overcast
4:53 PM 77.0 °F - 61.0 °F 58% 30.06 in 10.0 mi ENE 8.1 mph - N/A   Overcast
5:53 PM 77.0 °F - 62.1 °F 60% 30.06 in 10.0 mi NE 9.2 mph - N/A   Clear
6:53 PM 75.0 °F - 62.1 °F 64% 30.07 in 10.0 mi East 4.6 mph - N/A   Clear
7:53 PM 71.1 °F - 63.0 °F 75% 30.07 in 9.0 mi NE 4.6 mph - N/A   Clear
8:53 PM 71.1 °F - 63.0 °F 75% 30.08 in 10.0 mi ENE 4.6 mph - N/A   Clear
9:53 PM 72.0 °F - 62.1 °F 71% 30.10 in 10.0 mi ENE 3.5 mph - N/A   Clear
10:53 PM 70.0 °F - 62.1 °F 76% 30.11 in 10.0 mi Calm Calm - N/A   Clear
11:53 PM 68.0 °F - 63.0 °F 84% 30.11 in 10.0 mi Calm Calm - N/A   Clear